Location: Wiesbaden
(50.0830°N, 8.2500°E)
Time: 08:39:17
(UTC+01:00)

ISS - Pass Details

Date: 09 December 2018
Orbit: 401 x 408 km, 51.6° (Epoch: 12 December)

Event Time Altitude Azimuth Distance (km) Brightness Sun altitude
Rises 18:19:19 0° 287° (WNW) 2,320 1.0 -17.3°
Reaches altitude 10° 18:21:26 10° 282° (WNW) 1,458 0.0 -17.6°
Maximum altitude 18:24:35 46° 207° (SSW) 547 -3.0 -18.1°
Enters shadow 18:25:51 29° 151° (SSE) 772 -2.6 -18.3°
